QPF
0.00 0.00 0.00 0.00 0.00 0.00 0.00 0.00 0.00 0.00 0.00 0.00 0.00 0.00 0.00 0.00 0.00 0.00 0.00 0.00 0.00 0.00 0.00 0.00 0.00 0.00 0.00 0.00 0.01 0.01 0.01 0.01 0.01 0.02 0.02 0.02 0.03 0.03 0.03 0.04 0.04 0.04 0.05 0.05 0.06 0.07 0.08 0.08 0.07
0.00 0.00 0.00 0.00 0.00 0.00 0.00 0.00 0.00 0.00 0.00 0.00 0.00 0.00 0.00 0.00 0.00 0.00 0.00 0.00 0.00 0.00 0.00 0.00 0.00 0.00 0.00 0.00 0.00 0.00 0.00 0.01 0.01 0.01 0.02 0.02 0.02 0.02 0.02 0.03 0.04 0.03 0.04 0.06 0.06 0.06 0.06 0.07 0.08
0.00 0.00 0.00 0.00 0.00 0.00 0.00 0.00 0.00 0.00 0.00 0.00 0.00 0.00 0.00 0.00 0.00 0.00 0.00 0.00 0.00 0.00 0.00 0.00 0.00 0.00 0.00 0.00 0.00 0.00 0.00 0.00 0.00 0.00 0.01 0.01 0.01 0.01 0.02 0.03 0.04 0.03 0.02 0.03 0.05 0.06 0.06 0.05 0.05
0.00 0.00 0.00 0.00 0.00 0.00 0.00 0.00 0.00 0.00 0.00 0.00 0.00 0.00 0.00 0.00 0.00 0.00 0.00 0.00 0.00 0.00 0.00 0.00 0.00 0.00 0.00 0.00 0.00 0.00 0.00 0.01 0.00 0.00 0.01 0.01 0.01 0.01 0.01 0.02 0.04 0.03 0.02 0.02 0.04 0.04 0.05 0.05 0.05
0.00 0.00 0.00 0.00 0.00 0.00 0.00 0.00 0.00 0.00 0.00 0.00 0.00 0.00 0.00 0.00 0.00 0.00 0.00 0.00 0.00 0.00 0.00 0.00 0.00 0.00 0.01 0.01 0.01 0.01 0.01 0.01 0.01 0.01 0.01 0.01 0.01 0.00 0.01 0.01 0.01 0.02 0.01 0.02 0.04 0.05 0.06 0.05 0.04
0.00 0.00 0.00 0.00 0.00 0.00 0.00 0.00 0.00 0.00 0.00 0.00 0.00 0.00 0.00 0.00 0.00 0.00 0.00 0.00 0.00 0.00 0.00 0.00 0.00 0.00 0.00 0.01 0.01 0.01 0.01 0.01 0.01 0.01 0.01 0.01 0.01 0.01 0.01 0.01 0.01 0.01 0.02 0.01 0.02 0.05 0.06 0.05 0.04
0.00 0.00 0.00 0.00 0.00 0.00 0.00 0.00 0.00 0.00 0.00 0.00 0.00 0.00 0.00 0.00 0.00 0.00 0.00 0.00 0.00 0.00 0.00 0.00 0.00 0.00 0.00 0.00 0.00 0.00 0.00 0.00 0.00 0.00 0.00 0.00 0.01 0.01 0.01 0.01 0.01 0.01 0.01 0.02 0.02 0.03 0.05 0.06 0.05
0.00 0.00 0.00 0.00 0.00 0.00 0.00 0.00 0.00 0.00 0.00 0.00 0.00 0.00 0.00 0.00 0.00 0.00 0.00 0.00 0.00 0.00 0.00 0.00 0.00 0.00 0.00 0.00 0.00 0.00 0.00 0.00 0.00 0.00 0.00 0.00 0.00 0.00 0.00 0.01 0.00 0.01 0.01 0.01 0.02 0.02 0.03 0.06 0.08
0.00 0.00 0.00 0.00 0.00 0.00 0.00 0.00 0.00 0.00 0.00 0.00 0.00 0.00 0.00 0.00 0.00 0.00 0.00 0.00 0.00 0.00 0.00 0.00 0.00 0.00 0.00 0.00 0.00 0.00 0.00 0.00 0.00 0.00 0.00 0.00 0.00 0.01 0.01 0.01 0.01 0.01 0.00 0.01 0.01 0.02 0.02 0.03 0.05
0.00 0.00 0.00 0.00 0.00 0.00 0.00 0.00 0.00 0.00 0.00 0.00 0.00 0.00 0.00 0.00 0.00 0.00 0.00 0.00 0.00 0.00 0.00 0.00 0.00 0.00 0.00 0.00 0.00 0.01 0.01 0.01 0.00 0.00 0.00 0.00 0.00 0.00 0.00 0.00 0.00 0.00 0.00 0.01 0.01 0.02 0.03 0.03 0.02
0.00 0.00 0.00 0.00 0.00 0.00 0.00 0.00 0.00 0.00 0.00 0.00 0.00 0.00 0.00 0.00 0.00 0.00 0.00 0.00 0.00 0.00 0.00 0.00 0.01 0.01 0.00 0.00 0.00 0.00 0.01 0.01 0.01 0.01 0.00 0.00 0.00 0.00 0.00 0.00 0.00 0.00 0.00 0.01 0.02 0.03 0.03 0.03 0.02
0.00 0.00 0.00 0.00 0.00 0.00 0.00 0.00 0.00 0.00 0.00 0.00 0.00 0.00 0.00 0.00 0.00 0.00 0.00 0.00 0.00 0.00 0.00 0.00 0.00 0.01 0.01 0.00 0.00 0.00 0.00 0.01 0.01 0.01 0.01 0.00 0.00 0.00 0.00 0.00 0.00 0.00 0.00 0.01 0.02 0.02 0.03 0.02 0.02
0.00 0.00 0.00 0.00 0.00 0.00 0.00 0.00 0.00 0.00 0.00 0.00 0.00 0.00 0.00 0.00 0.00 0.00 0.00 0.00 0.00 0.00 0.00 0.00 0.00 0.00 0.00 0.01 0.00 0.00 0.00 0.00 0.01 0.01 0.01 0.01 0.00 0.00 0.00 0.00 0.00 0.00 0.00 0.00 0.01 0.02 0.02 0.03 0.02
0.00 0.00 0.00 0.00 0.00 0.00 0.00 0.00 0.00 0.00 0.00 0.00 0.00 0.00 0.00 0.00 0.00 0.00 0.00 0.00 0.00 0.00 0.00 0.00 0.00 0.00 0.00 0.01 0.01 0.00 0.00 0.00 0.00 0.01 0.01 0.01 0.00 0.00 0.00 0.00 0.00 0.00 0.00 0.00 0.00 0.01 0.02 0.02 0.02
0.00 0.00 0.00 0.00 0.00 0.00 0.00 0.00 0.00 0.00 0.00 0.00 0.00 0.00 0.00 0.00 0.00 0.00 0.00 0.00 0.00 0.00 0.00 0.00 0.00 0.00 0.00 0.00 0.00 0.01 0.00 0.00 0.00 0.00 0.00 0.00 0.00 0.00 0.00 0.00 0.00 0.00 0.00 0.00 0.00 0.01 0.01 0.02 0.02
0.00 0.00 0.00 0.00 0.00 0.00 0.00 0.00 0.00 0.00 0.00 0.00 0.00 0.00 0.00 0.00 0.00 0.00 0.00 0.00 0.00 0.00 0.00 0.00 0.00 0.00 0.00 0.00 0.00 0.00 0.00 0.00 0.00 0.00 0.00 0.00 0.00 0.00 0.00 0.00 0.00 0.00 0.00 0.00 0.00 0.00 0.01 0.02 0.02
0.00 0.00 0.00 0.00 0.00 0.00 0.00 0.00 0.00 0.00 0.00 0.00 0.00 0.00 0.00 0.00 0.00 0.00 0.00 0.00 0.00 0.00 0.00 0.00 0.00 0.00 0.00 0.00 0.00 0.00 0.00 0.00 0.00 0.00 0.00 0.00 0.00 0.00 0.00 0.00 0.00 0.00 0.00 0.00 0.00 0.00 0.01 0.01 0.02
0.00 0.00 0.00 0.00 0.00 0.00 0.00 0.00 0.00 0.00 0.00 0.00 0.00 0.00 0.00 0.00 0.00 0.00 0.00 0.00 0.00 0.00 0.00 0.00 0.00 0.00 0.00 0.00 0.00 0.00 0.00 0.00 0.00 0.00 0.00 0.00 0.00 0.00 0.00 0.00 0.00 0.00 0.00 0.00 0.00 0.00 0.01 0.01 0.02
0.00 0.00 0.00 0.00 0.00 0.00 0.00 0.00 0.00 0.00 0.00 0.00 0.00 0.00 0.00 0.00 0.00 0.00 0.00 0.00 0.00 0.00 0.00 0.00 0.00 0.00 0.00 0.00 0.00 0.00 0.00 0.00 0.00 0.00 0.00 0.00 0.01 0.01 0.00 0.00 0.00 0.00 0.00 0.00 0.00 0.00 0.01 0.01 0.02
0.01 0.01 0.00 0.00 0.00 0.00 0.00 0.00 0.00 0.00 0.00 0.00 0.00 0.00 0.00 0.00 0.00 0.00 0.00 0.00 0.00 0.00 0.00 0.00 0.00 0.00 0.00 0.00 0.00 0.00 0.00 0.00 0.00 0.00 0.00 0.00 0.01 0.01 0.00 0.00 0.00 0.00 0.00 0.00 0.00 0.00 0.01 0.01 0.02
0.01 0.01 0.00 0.00 0.00 0.00 0.00 0.00 0.00 0.00 0.00 0.00 0.00 0.00 0.00 0.00 0.00 0.00 0.00 0.00 0.00 0.00 0.00 0.00 0.00 0.00 0.00 0.00 0.00 0.00 0.00 0.00 0.00 0.01 0.01 0.01 0.01 0.01 0.01 0.01 0.00 0.00 0.00 0.00 0.00 0.00 0.01 0.02 0.02
0.01 0.00 0.00 0.00 0.01 0.01 0.00 0.00 0.00 0.00 0.00 0.00 0.00 0.00 0.00 0.00 0.00 0.00 0.00 0.00 0.00 0.00 0.00 0.00 0.00 0.00 0.00 0.00 0.00 0.00 0.00 0.00 0.00 0.00 0.01 0.01 0.01 0.01 0.01 0.01 0.01 0.01 0.00 0.00 0.00 0.00 0.01 0.02 0.03
0.01 0.00 0.00 0.01 0.01 0.01 0.00 0.00 0.00 0.00 0.00 0.00 0.00 0.00 0.00 0.00 0.00 0.00 0.00 0.00 0.00 0.00 0.00 0.00 0.00 0.00 0.00 0.00 0.00 0.00 0.00 0.00 0.00 0.01 0.01 0.01 0.01 0.01 0.01 0.01 0.01 0.01 0.00 0.00 0.00 0.01 0.01 0.02 0.02
0.01 0.01 0.01 0.01 0.02 0.02 0.01 0.00 0.00 0.00 0.00 0.00 0.00 0.00 0.00 0.00 0.00 0.00 0.00 0.00 0.00 0.00 0.00 0.00 0.00 0.00 0.00 0.00 0.00 0.00 0.00 0.00 0.01 0.01 0.01 0.01 0.01 0.01 0.01 0.01 0.01 0.01 0.00 0.00 0.00 0.01 0.02 0.02 0.02
0.02 0.02 0.02 0.02 0.02 0.01 0.00 0.00 0.00 0.00 0.00 0.00 0.00 0.00 0.00 0.00 0.00 0.00 0.00 0.00 0.00 0.00 0.00 0.00 0.00 0.00 0.00 0.00 0.00 0.00 0.00 0.00 0.01 0.01 0.01 0.01 0.01 0.01 0.02 0.02 0.01 0.01 0.00 0.01 0.01 0.01 0.02 0.02 0.02
0.01 0.01 0.02 0.02 0.01 0.00 0.00 0.00 0.00 0.00 0.00 0.00 0.00 0.00 0.00 0.00 0.00 0.00 0.00 0.00 0.00 0.00 0.00 0.00 0.00 0.00 0.00 0.00 0.00 0.01 0.01 0.01 0.01 0.01 0.01 0.01 0.01 0.01 0.01 0.03 0.02 0.01 0.01 0.01 0.01 0.02 0.02 0.03 0.03
0.01 0.01 0.01 0.02 0.01 0.01 0.00 0.00 0.00 0.00 0.00 0.00 0.00 0.00 0.00 0.00 0.00 0.00 0.00 0.00 0.00 0.00 0.00 0.00 0.00 0.00 0.00 0.00 0.00 0.00 0.01 0.01 0.01 0.01 0.01 0.01 0.01 0.01 0.01 0.03 0.04 0.02 0.01 0.02 0.02 0.02 0.03 0.04 0.04
0.01 0.01 0.02 0.03 0.02 0.01 0.00 0.00 0.00 0.00 0.00 0.00 0.00 0.00 0.00 0.00 0.00 0.00 0.00 0.00 0.00 0.00 0.00 0.00 0.00 0.00 0.00 0.00 0.00 0.01 0.01 0.01 0.02 0.02 0.01 0.01 0.01 0.01 0.01 0.02 0.04 0.03 0.03 0.03 0.03 0.03 0.04 0.04 0.03
0.02 0.03 0.03 0.03 0.02 0.02 0.01 0.01 0.01 0.00 0.00 0.00 0.00 0.00 0.00 0.00 0.00 0.00 0.00 0.00 0.00 0.00 0.00 0.00 0.00 0.00 0.00 0.00 0.00 0.01 0.01 0.01 0.03 0.02 0.01 0.01 0.01 0.01 0.01 0.01 0.02 0.03 0.03 0.02 0.02 0.03 0.04 0.04 0.02
0.02 0.03 0.04 0.05 0.03 0.01 0.01 0.02 0.01 0.00 0.00 0.00 0.00 0.00 0.00 0.00 0.00 0.00 0.00 0.00 0.00 0.00 0.01 0.01 0.01 0.00 0.00 0.00 0.00 0.01 0.02 0.02 0.03 0.03 0.01 0.01 0.00 0.00 0.01 0.01 0.01 0.02 0.02 0.01 0.01 0.02 0.02 0.01 0.01
MSLP
1010.29 1010.57 1011.01 1011.55 1012.10 1012.59 1012.96 1013.18 1013.27 1013.29 1013.34 1013.50 1013.86 1014.42 1015.17 1016.02 1016.87 1017.59 1018.11 1018.38 1018.42 1018.28 1018.05 1017.82 1017.66 1017.61 1017.64 1017.70 1017.72 1017.63 1017.41 1017.04 1016.57 1016.05 1015.57 1015.17 1014.90 1014.75 1014.70 1014.69 1014.67 1014.59 1014.44 1014.21 1013.91 1013.56 1013.19 1012.82 1012.46
1010.45 1010.79 1011.26 1011.80 1012.35 1012.84 1013.22 1013.48 1013.65 1013.80 1013.98 1014.28 1014.74 1015.35 1016.09 1016.87 1017.59 1018.16 1018.52 1018.65 1018.59 1018.40 1018.15 1017.94 1017.81 1017.78 1017.81 1017.86 1017.86 1017.75 1017.50 1017.12 1016.66 1016.16 1015.70 1015.32 1015.05 1014.89 1014.80 1014.75 1014.68 1014.57 1014.40 1014.17 1013.89 1013.59 1013.26 1012.94 1012.61
1010.64 1011.03 1011.53 1012.07 1012.60 1013.08 1013.47 1013.77 1014.02 1014.26 1014.56 1014.96 1015.50 1016.14 1016.84 1017.54 1018.14 1018.57 1018.79 1018.82 1018.69 1018.46 1018.21 1018.02 1017.90 1017.88 1017.90 1017.92 1017.88 1017.74 1017.47 1017.10 1016.65 1016.19 1015.77 1015.42 1015.15 1014.96 1014.82 1014.69 1014.55 1014.38 1014.17 1013.93 1013.68 1013.43 1013.18 1012.93 1012.67
1010.85 1011.29 1011.80 1012.34 1012.86 1013.32 1013.72 1014.05 1014.36 1014.69 1015.08 1015.56 1016.13 1016.77 1017.42 1018.01 1018.49 1018.79 1018.90 1018.85 1018.67 1018.44 1018.22 1018.04 1017.95 1017.92 1017.92 1017.90 1017.81 1017.63 1017.35 1016.98 1016.57 1016.16 1015.78 1015.45 1015.18 1014.96 1014.75 1014.54 1014.31 1014.06 1013.81 1013.56 1013.33 1013.14 1012.97 1012.81 1012.64
1011.06 1011.53 1012.06 1012.60 1013.11 1013.56 1013.97 1014.34 1014.70 1015.10 1015.55 1016.08 1016.66 1017.27 1017.84 1018.33 1018.68 1018.86 1018.88 1018.77 1018.58 1018.36 1018.17 1018.03 1017.96 1017.93 1017.90 1017.83 1017.70 1017.48 1017.18 1016.82 1016.43 1016.06 1015.73 1015.43 1015.16 1014.90 1014.64 1014.35 1014.03 1013.71 1013.41 1013.14 1012.93 1012.77 1012.67 1012.59 1012.50
1011.25 1011.76 1012.31 1012.85 1013.36 1013.82 1014.24 1014.65 1015.07 1015.52 1016.03 1016.58 1017.15 1017.70 1018.19 1018.56 1018.78 1018.86 1018.80 1018.65 1018.46 1018.28 1018.13 1018.04 1018.00 1017.96 1017.91 1017.80 1017.61 1017.34 1017.01 1016.65 1016.29 1015.95 1015.65 1015.37 1015.11 1014.83 1014.53 1014.18 1013.80 1013.42 1013.06 1012.77 1012.55 1012.42 1012.35 1012.32 1012.28
1011.45 1012.00 1012.56 1013.11 1013.62 1014.10 1014.55 1015.01 1015.48 1015.99 1016.54 1017.10 1017.64 1018.13 1018.52 1018.78 1018.89 1018.87 1018.75 1018.58 1018.40 1018.26 1018.16 1018.11 1018.10 1018.06 1017.99 1017.83 1017.59 1017.28 1016.91 1016.53 1016.17 1015.85 1015.57 1015.32 1015.07 1014.78 1014.46 1014.08 1013.66 1013.24 1012.85 1012.52 1012.29 1012.14 1012.07 1012.04 1012.01
1011.70 1012.27 1012.84 1013.40 1013.93 1014.43 1014.92 1015.42 1015.95 1016.51 1017.08 1017.65 1018.17 1018.60 1018.90 1019.06 1019.07 1018.97 1018.81 1018.62 1018.45 1018.34 1018.29 1018.28 1018.28 1018.25 1018.15 1017.95 1017.66 1017.30 1016.90 1016.49 1016.12 1015.80 1015.53 1015.29 1015.05 1014.77 1014.45 1014.06 1013.64 1013.20 1012.79 1012.44 1012.17 1011.98 1011.87 1011.79 1011.73
1012.02 1012.61 1013.20 1013.77 1014.31 1014.84 1015.36 1015.91 1016.47 1017.07 1017.66 1018.23 1018.71 1019.09 1019.32 1019.40 1019.34 1019.19 1018.99 1018.79 1018.63 1018.54 1018.52 1018.53 1018.54 1018.49 1018.37 1018.14 1017.81 1017.40 1016.96 1016.53 1016.14 1015.81 1015.53 1015.29 1015.06 1014.80 1014.49 1014.12 1013.71 1013.28 1012.87 1012.50 1012.18 1011.94 1011.75 1011.60 1011.46
1012.45 1013.06 1013.66 1014.24 1014.79 1015.33 1015.88 1016.44 1017.03 1017.64 1018.23 1018.78 1019.23 1019.57 1019.75 1019.78 1019.68 1019.49 1019.27 1019.06 1018.91 1018.83 1018.81 1018.82 1018.82 1018.75 1018.60 1018.34 1017.97 1017.54 1017.07 1016.61 1016.19 1015.84 1015.56 1015.31 1015.08 1014.83 1014.54 1014.21 1013.83 1013.42 1013.02 1012.63 1012.28 1011.98 1011.71 1011.46 1011.22
1012.99 1013.62 1014.23 1014.81 1015.37 1015.90 1016.45 1017.01 1017.58 1018.17 1018.74 1019.25 1019.67 1019.96 1020.11 1020.12 1020.00 1019.80 1019.58 1019.38 1019.23 1019.14 1019.11 1019.09 1019.06 1018.97 1018.78 1018.49 1018.10 1017.65 1017.16 1016.69 1016.26 1015.89 1015.58 1015.32 1015.08 1014.83 1014.56 1014.25 1013.91 1013.54 1013.15 1012.77 1012.39 1012.03 1011.69 1011.35 1011.01
1013.62 1014.27 1014.89 1015.47 1016.02 1016.54 1017.05 1017.57 1018.10 1018.63 1019.14 1019.60 1019.97 1020.22 1020.35 1020.35 1020.24 1020.07 1019.87 1019.68 1019.53 1019.42 1019.36 1019.30 1019.22 1019.08 1018.86 1018.55 1018.15 1017.70 1017.21 1016.74 1016.30 1015.91 1015.58 1015.29 1015.02 1014.77 1014.50 1014.21 1013.89 1013.54 1013.18 1012.81 1012.42 1012.03 1011.63 1011.23 1010.82
1014.28 1014.96 1015.59 1016.16 1016.69 1017.18 1017.64 1018.10 1018.55 1018.99 1019.41 1019.78 1020.09 1020.31 1020.42 1020.43 1020.36 1020.23 1020.06 1019.90 1019.75 1019.63 1019.52 1019.41 1019.28 1019.09 1018.83 1018.49 1018.10 1017.65 1017.19 1016.73 1016.29 1015.89 1015.53 1015.21 1014.91 1014.62 1014.33 1014.03 1013.72 1013.39 1013.05 1012.69 1012.32 1011.92 1011.49 1011.05 1010.61
1014.89 1015.59 1016.23 1016.81 1017.32 1017.77 1018.18 1018.55 1018.90 1019.23 1019.54 1019.82 1020.05 1020.23 1020.33 1020.37 1020.34 1020.27 1020.16 1020.03 1019.90 1019.76 1019.61 1019.44 1019.24 1018.99 1018.69 1018.35 1017.95 1017.53 1017.10 1016.66 1016.24 1015.83 1015.45 1015.08 1014.74 1014.39 1014.06 1013.73 1013.40 1013.08 1012.75 1012.40 1012.04 1011.65 1011.24 1010.80 1010.34
1015.38 1016.10 1016.76 1017.34 1017.84 1018.26 1018.62 1018.91 1019.17 1019.38 1019.58 1019.76 1019.91 1020.04 1020.14 1020.21 1020.24 1020.23 1020.19 1020.10 1019.99 1019.84 1019.66 1019.43 1019.17 1018.86 1018.53 1018.16 1017.77 1017.38 1016.97 1016.56 1016.16 1015.75 1015.35 1014.94 1014.53 1014.13 1013.73 1013.35 1012.99 1012.64 1012.30 1011.97 1011.62 1011.26 1010.87 1010.45 1010.01
1015.72 1016.45 1017.11 1017.70 1018.21 1018.62 1018.94 1019.18 1019.35 1019.48 1019.58 1019.67 1019.76 1019.86 1019.95 1020.05 1020.13 1020.19 1020.21 1020.18 1020.09 1019.94 1019.72 1019.45 1019.13 1018.77 1018.39 1018.00 1017.62 1017.23 1016.85 1016.47 1016.08 1015.67 1015.24 1014.79 1014.33 1013.85 1013.39 1012.95 1012.53 1012.15 1011.79 1011.46 1011.13 1010.79 1010.43 1010.04 1009.63
1015.91 1016.62 1017.29 1017.89 1018.40 1018.82 1019.13 1019.35 1019.49 1019.56 1019.61 1019.64 1019.68 1019.75 1019.85 1019.97 1020.10 1020.21 1020.29 1020.30 1020.24 1020.09 1019.85 1019.54 1019.17 1018.76 1018.34 1017.92 1017.52 1017.14 1016.77 1016.40 1016.01 1015.60 1015.15 1014.66 1014.14 1013.61 1013.08 1012.58 1012.11 1011.69 1011.30 1010.95 1010.62 1010.30 1009.96 1009.60 1009.22
1015.99 1016.67 1017.32 1017.92 1018.45 1018.89 1019.23 1019.47 1019.61 1019.67 1019.70 1019.71 1019.74 1019.80 1019.90 1020.04 1020.20 1020.35 1020.46 1020.51 1020.46 1020.31 1020.06 1019.72 1019.31 1018.86 1018.39 1017.94 1017.51 1017.11 1016.73 1016.35 1015.96 1015.53 1015.05 1014.54 1013.98 1013.41 1012.83 1012.28 1011.76 1011.30 1010.88 1010.51 1010.18 1009.85 1009.53 1009.18 1008.81
1016.06 1016.67 1017.29 1017.87 1018.41 1018.88 1019.26 1019.54 1019.72 1019.83 1019.88 1019.91 1019.95 1020.02 1020.12 1020.27 1020.44 1020.61 1020.74 1020.79 1020.75 1020.60 1020.33 1019.97 1019.52 1019.04 1018.54 1018.04 1017.58 1017.14 1016.72 1016.32 1015.89 1015.44 1014.94 1014.40 1013.83 1013.23 1012.62 1012.04 1011.50 1011.01 1010.57 1010.18 1009.82 1009.49 1009.15 1008.81 1008.43
1016.20 1016.73 1017.27 1017.82 1018.36 1018.84 1019.26 1019.60 1019.86 1020.03 1020.15 1020.23 1020.30 1020.39 1020.50 1020.65 1020.81 1020.96 1021.07 1021.11 1021.06 1020.89 1020.61 1020.24 1019.77 1019.26 1018.72 1018.19 1017.68 1017.19 1016.72 1016.27 1015.80 1015.31 1014.79 1014.23 1013.64 1013.04 1012.43 1011.85 1011.30 1010.80 1010.35 1009.94 1009.56 1009.20 1008.85 1008.48 1008.09
1016.51 1016.93 1017.38 1017.85 1018.35 1018.83 1019.28 1019.67 1020.00 1020.26 1020.46 1020.61 1020.73 1020.85 1020.97 1021.10 1021.22 1021.34 1021.40 1021.41 1021.32 1021.14 1020.85 1020.47 1019.99 1019.47 1018.91 1018.34 1017.78 1017.24 1016.70 1016.18 1015.66 1015.12 1014.56 1013.99 1013.40 1012.80 1012.22 1011.65 1011.12 1010.62 1010.17 1009.74 1009.35 1008.96 1008.58 1008.18 1007.77
1017.03 1017.32 1017.65 1018.02 1018.44 1018.88 1019.33 1019.75 1020.14 1020.48 1020.76 1020.99 1021.17 1021.32 1021.44 1021.55 1021.63 1021.68 1021.69 1021.64 1021.52 1021.30 1021.00 1020.61 1020.15 1019.62 1019.05 1018.46 1017.85 1017.25 1016.65 1016.06 1015.47 1014.87 1014.28 1013.68 1013.09 1012.51 1011.95 1011.41 1010.90 1010.42 1009.97 1009.54 1009.12 1008.71 1008.29 1007.87 1007.42
1017.74 1017.90 1018.09 1018.34 1018.65 1019.01 1019.42 1019.85 1020.27 1020.67 1021.03 1021.32 1021.56 1021.74 1021.87 1021.94 1021.98 1021.96 1021.90 1021.79 1021.62 1021.38 1021.07 1020.68 1020.22 1019.71 1019.14 1018.53 1017.89 1017.24 1016.57 1015.91 1015.25 1014.60 1013.96 1013.34 1012.74 1012.17 1011.62 1011.10 1010.62 1010.15 1009.70 1009.26 1008.82 1008.38 1007.93 1007.48 1007.02
1018.57 1018.61 1018.66 1018.77 1018.95 1019.21 1019.55 1019.94 1020.37 1020.80 1021.21 1021.57 1021.85 1022.06 1022.20 1022.25 1022.24 1022.17 1022.05 1021.88 1021.66 1021.40 1021.07 1020.69 1020.25 1019.75 1019.19 1018.57 1017.91 1017.22 1016.50 1015.78 1015.05 1014.34 1013.66 1013.00 1012.39 1011.81 1011.26 1010.75 1010.27 1009.80 1009.34 1008.88 1008.42 1007.94 1007.46 1006.98 1006.51
1019.40 1019.34 1019.28 1019.25 1019.30 1019.44 1019.68 1020.02 1020.43 1020.87 1021.30 1021.70 1022.04 1022.28 1022.43 1022.48 1022.45 1022.34 1022.17 1021.96 1021.70 1021.41 1021.08 1020.71 1020.27 1019.79 1019.23 1018.62 1017.94 1017.22 1016.47 1015.69 1014.91 1014.16 1013.43 1012.74 1012.09 1011.49 1010.93 1010.40 1009.90 1009.40 1008.91 1008.41 1007.91 1007.39 1006.88 1006.38 1005.89
1020.12 1020.00 1019.85 1019.71 1019.64 1019.66 1019.81 1020.07 1020.43 1020.86 1021.32 1021.75 1022.12 1022.41 1022.59 1022.66 1022.62 1022.50 1022.32 1022.08 1021.80 1021.49 1021.15 1020.77 1020.34 1019.86 1019.30 1018.69 1018.00 1017.26 1016.48 1015.67 1014.86 1014.07 1013.31 1012.58 1011.91 1011.27 1010.67 1010.11 1009.55 1009.01 1008.46 1007.90 1007.34 1006.77 1006.22 1005.68 1005.18
1020.64 1020.50 1020.29 1020.08 1019.91 1019.85 1019.90 1020.09 1020.41 1020.81 1021.27 1021.72 1022.13 1022.46 1022.69 1022.80 1022.80 1022.70 1022.51 1022.27 1021.99 1021.67 1021.31 1020.92 1020.48 1019.98 1019.41 1018.78 1018.08 1017.33 1016.53 1015.72 1014.90 1014.09 1013.31 1012.57 1011.86 1011.19 1010.54 1009.92 1009.30 1008.68 1008.05 1007.41 1006.77 1006.14 1005.54 1004.97 1004.45
1020.90 1020.78 1020.56 1020.31 1020.10 1019.96 1019.95 1020.08 1020.35 1020.73 1021.18 1021.65 1022.10 1022.48 1022.76 1022.93 1022.99 1022.93 1022.78 1022.56 1022.28 1021.95 1021.58 1021.16 1020.68 1020.15 1019.55 1018.89 1018.17 1017.41 1016.61 1015.80 1014.99 1014.20 1013.43 1012.68 1011.96 1011.26 1010.57 1009.87 1009.17 1008.46 1007.74 1007.02 1006.29 1005.59 1004.92 1004.31 1003.77
1020.93 1020.85 1020.66 1020.41 1020.18 1020.01 1019.96 1020.05 1020.27 1020.62 1021.07 1021.55 1022.03 1022.46 1022.81 1023.05 1023.18 1023.19 1023.10 1022.91 1022.65 1022.31 1021.92 1021.45 1020.93 1020.34 1019.69 1018.99 1018.25 1017.47 1016.68 1015.89 1015.11 1014.35 1013.62 1012.90 1012.18 1011.47 1010.74 1009.99 1009.21 1008.42 1007.60 1006.78 1005.98 1005.20 1004.47 1003.81 1003.24
1020.78 1020.75 1020.61 1020.39 1020.18 1020.01 1019.94 1019.99 1020.19 1020.52 1020.95 1021.44 1021.95 1022.42 1022.83 1023.15 1023.35 1023.44 1023.41 1023.27 1023.03 1022.69 1022.27 1021.76 1021.17 1020.52 1019.81 1019.06 1018.28 1017.49 1016.71 1015.96 1015.23 1014.53 1013.84 1013.17 1012.48 1011.77 1011.03 1010.23 1009.40 1008.53 1007.64 1006.75 1005.87 1005.02 1004.24 1003.54 1002.93
Thickness
5705 5709 5712 5708 5694 5691 5701 5726 5744 5747 5751 5757 5761 5760 5752 5739 5736 5722 5733 5746 5745 5742 5739 5737 5736 5736 5736 5736 5736 5736 5736 5736 5737 5737 5738 5738 5739 5739 5739 5739 5739 5739 5739 5739 5739 5739 5739 5738 5738
5702 5708 5704 5697 5685 5685 5705 5728 5735 5743 5747 5751 5752 5751 5746 5733 5735 5731 5734 5739 5741 5738 5735 5732 5731 5731 5731 5731 5731 5731 5731 5731 5731 5731 5732 5732 5733 5733 5734 5734 5734 5734 5734 5735 5735 5735 5735 5734 5734
5697 5703 5693 5688 5688 5694 5712 5732 5735 5738 5744 5743 5739 5741 5736 5728 5731 5729 5732 5736 5736 5733 5729 5727 5726 5726 5726 5725 5725 5725 5725 5725 5725 5726 5726 5726 5727 5727 5728 5729 5729 5729 5729 5729 5730 5730 5730 5730 5729
5692 5688 5687 5684 5689 5709 5721 5729 5733 5730 5732 5736 5733 5726 5726 5730 5731 5729 5730 5732 5730 5727 5724 5721 5720 5720 5720 5720 5720 5720 5720 5719 5719 5720 5720 5720 5721 5721 5722 5722 5723 5723 5724 5724 5724 5725 5725 5725 5725
5685 5679 5674 5677 5690 5710 5725 5730 5729 5723 5722 5726 5726 5717 5712 5721 5726 5725 5725 5726 5724 5721 5718 5716 5715 5714 5714 5714 5714 5713 5713 5713 5714 5714 5714 5714 5715 5715 5715 5716 5717 5717 5718 5718 5718 5719 5720 5720 5720
5673 5675 5670 5673 5691 5708 5719 5726 5723 5719 5719 5722 5720 5712 5705 5715 5717 5718 5720 5719 5719 5716 5713 5710 5709 5709 5708 5708 5707 5707 5707 5707 5708 5708 5708 5708 5709 5709 5709 5710 5710 5711 5712 5712 5713 5713 5714 5714 5714
5666 5667 5669 5680 5690 5701 5714 5722 5716 5713 5712 5715 5720 5708 5701 5706 5711 5713 5713 5713 5712 5710 5707 5705 5704 5703 5702 5702 5701 5701 5701 5701 5701 5701 5702 5702 5703 5703 5703 5703 5704 5704 5705 5706 5707 5708 5708 5709 5709
5668 5666 5670 5677 5684 5694 5710 5714 5714 5710 5709 5718 5718 5705 5697 5702 5706 5707 5707 5706 5705 5703 5702 5700 5699 5697 5696 5695 5695 5695 5694 5694 5695 5695 5695 5696 5696 5696 5696 5697 5697 5698 5699 5700 5701 5702 5702 5703 5703
5663 5654 5662 5676 5683 5691 5702 5701 5705 5707 5704 5707 5708 5705 5706 5704 5701 5699 5697 5696 5696 5696 5696 5695 5694 5692 5691 5690 5689 5689 5688 5688 5688 5688 5689 5689 5689 5690 5690 5690 5691 5692 5693 5693 5694 5695 5696 5697 5697
5651 5647 5665 5680 5685 5687 5692 5693 5694 5693 5690 5692 5693 5695 5697 5696 5693 5690 5689 5688 5688 5688 5689 5689 5688 5686 5685 5685 5683 5683 5683 5682 5682 5682 5683 5683 5683 5683 5684 5684 5684 5685 5686 5687 5687 5688 5689 5690 5690
5651 5653 5666 5675 5680 5681 5681 5684 5689 5683 5679 5686 5686 5685 5686 5687 5686 5685 5685 5685 5684 5684 5683 5683 5681 5680 5679 5678 5678 5677 5677 5676 5676 5676 5676 5676 5677 5677 5677 5677 5678 5678 5679 5679 5680 5681 5682 5682 5683
5649 5655 5662 5666 5668 5670 5671 5675 5677 5678 5681 5690 5691 5687 5683 5681 5681 5681 5681 5681 5680 5679 5678 5677 5676 5674 5673 5673 5672 5672 5671 5670 5670 5670 5670 5670 5670 5670 5670 5670 5671 5671 5672 5672 5673 5673 5674 5675 5675
5641 5648 5656 5659 5660 5661 5663 5664 5667 5672 5680 5685 5685 5682 5679 5678 5678 5679 5679 5678 5676 5673 5672 5671 5670 5668 5668 5667 5666 5666 5665 5664 5664 5664 5663 5663 5663 5662 5663 5663 5663 5663 5664 5665 5665 5665 5666 5666 5667
5640 5643 5647 5651 5652 5654 5653 5656 5659 5668 5674 5675 5675 5673 5673 5673 5674 5674 5674 5673 5671 5669 5667 5665 5664 5663 5662 5661 5660 5659 5659 5659 5658 5657 5657 5656 5656 5656 5656 5655 5655 5655 5656 5657 5657 5657 5657 5657 5658
5633 5630 5634 5642 5645 5648 5646 5645 5655 5667 5668 5667 5668 5668 5669 5670 5670 5670 5670 5669 5667 5665 5662 5660 5659 5657 5656 5655 5654 5654 5653 5653 5652 5651 5650 5650 5649 5649 5648 5648 5647 5647 5648 5648 5648 5648 5648 5648 5648
5619 5616 5618 5636 5640 5641 5633 5635 5657 5665 5662 5661 5663 5664 5664 5665 5666 5667 5666 5665 5664 5660 5657 5655 5654 5651 5650 5649 5648 5647 5647 5646 5645 5644 5643 5642 5642 5641 5640 5640 5639 5639 5639 5639 5638 5638 5637 5637 5637
5605 5606 5614 5626 5636 5636 5629 5633 5652 5660 5659 5657 5658 5660 5660 5660 5661 5662 5662 5661 5659 5656 5652 5649 5648 5645 5644 5643 5642 5641 5640 5639 5638 5637 5636 5635 5634 5633 5632 5631 5631 5630 5629 5629 5628 5627 5626 5625 5626
5599 5606 5615 5620 5628 5629 5624 5631 5642 5650 5652 5652 5654 5656 5656 5656 5657 5658 5658 5656 5654 5650 5647 5644 5642 5639 5638 5636 5635 5633 5632 5631 5630 5629 5628 5627 5626 5625 5624 5623 5622 5621 5620 5618 5618 5617 5616 5615 5615
5605 5606 5609 5617 5622 5620 5619 5625 5634 5642 5643 5645 5648 5651 5652 5653 5655 5654 5653 5650 5647 5644 5641 5638 5635 5633 5631 5629 5627 5625 5623 5622 5622 5621 5620 5619 5618 5616 5615 5614 5613 5612 5610 5609 5607 5606 5604 5603 5603
5596 5595 5600 5605 5612 5611 5610 5617 5630 5638 5640 5643 5645 5647 5648 5648 5649 5649 5647 5644 5641 5638 5635 5632 5630 5627 5625 5623 5621 5618 5616 5615 5614 5612 5611 5610 5609 5608 5607 5605 5604 5602 5601 5599 5597 5594 5592 5590 5588
5586 5587 5592 5593 5596 5601 5599 5605 5622 5634 5639 5642 5644 5646 5646 5646 5645 5643 5641 5638 5635 5633 5630 5628 5624 5622 5619 5616 5613 5611 5608 5606 5604 5603 5602 5602 5601 5600 5598 5597 5595 5593 5591 5588 5586 5583 5580 5577 5576
5573 5585 5588 5586 5579 5580 5589 5584 5616 5628 5631 5636 5638 5640 5641 5643 5642 5640 5637 5634 5630 5628 5625 5622 5619 5616 5612 5609 5606 5603 5599 5597 5596 5595 5594 5593 5592 5591 5590 5588 5586 5584 5582 5578 5575 5573 5570 5567 5564
5570 5577 5577 5576 5573 5571 5582 5577 5603 5622 5623 5630 5633 5635 5637 5637 5637 5635 5633 5630 5626 5622 5618 5616 5612 5609 5606 5602 5599 5596 5592 5590 5589 5588 5586 5585 5584 5583 5581 5579 5577 5575 5572 5569 5566 5563 5560 5557 5554
5562 5563 5563 5563 5559 5553 5576 5575 5592 5610 5620 5625 5629 5630 5631 5631 5631 5629 5627 5624 5620 5615 5612 5609 5606 5602 5599 5595 5592 5589 5586 5583 5581 5580 5578 5577 5576 5574 5573 5571 5569 5566 5563 5560 5557 5554 5551 5548 5545
5549 5542 5537 5537 5537 5552 5580 5576 5590 5613 5623 5624 5624 5625 5625 5625 5623 5621 5620 5617 5613 5609 5605 5602 5599 5595 5592 5589 5585 5582 5579 5577 5575 5573 5571 5569 5567 5566 5565 5563 5560 5558 5555 5552 5548 5545 5542 5539 5536
5539 5541 5537 5538 5543 5559 5573 5572 5592 5611 5616 5619 5620 5619 5617 5616 5615 5614 5613 5610 5606 5603 5599 5595 5592 5589 5586 5582 5579 5575 5573 5570 5568 5566 5564 5562 5560 5558 5557 5554 5552 5549 5547 5544 5541 5537 5534 5531 5528
5531 5533 5544 5540 5544 5546 5562 5579 5590 5599 5603 5605 5607 5607 5606 5606 5606 5606 5605 5603 5599 5595 5592 5589 5586 5583 5579 5576 5572 5569 5566 5564 5562 5560 5557 5554 5552 5550 5548 5546 5543 5541 5539 5536 5533 5530 5527 5524 5521
5527 5533 5528 5526 5532 5543 5563 5571 5572 5581 5587 5591 5593 5594 5595 5596 5596 5596 5596 5594 5592 5588 5585 5581 5578 5576 5573 5569 5566 5563 5560 5558 5555 5552 5549 5546 5544 5542 5540 5538 5535 5533 5531 5528 5525 5522 5519 5516 5513
5513 5516 5520 5524 5531 5537 5548 5558 5577 5578 5580 5581 5582 5584 5586 5586 5585 5585 5585 5584 5582 5579 5576 5573 5570 5568 5565 5562 5559 5556 5553 5550 5548 5544 5541 5539 5536 5534 5532 5530 5527 5525 5523 5520 5517 5514 5512 5508 5505
5509 5512 5508 5509 5518 5530 5534 5545 5569 5571 5573 5573 5573 5575 5575 5575 5574 5574 5574 5573 5571 5569 5567 5565 5562 5559 5557 5555 5552 5549 5545 5542 5539 5536 5534 5531 5528 5526 5523 5521 5519 5517 5515 5512 5509 5506 5504 5500 5497